Location: Étouvelles
(49.5207°N, 3.5808°E)
Time: 12:57:39
(UTC+00:00)

Cosmos 1869 - Pass Details

Date: 03 February 2023
Orbit: 510 x 550 km, 82.5° (Epoch: 21 March)

Event Time Altitude Azimuth Distance (km) Brightness Sun altitude
Rises 19:01:10 0° 344° (NNW) 2,661 7.0 -22.4°
Reaches altitude 10° 19:03:22 10° 337° (NNW) 1,774 6.2 -22.7°
Maximum altitude 19:07:03 41° 267° (W) 774 4.5 -23.3°
Drops below altitude 10° 19:10:44 10° 196° (SSW) 1,784 6.1 -23.9°
Sets 19:12:58 0° 189° (S) 2,678 6.9 -24.3°
